Regional Weather Roundup
Issued by NWS

Home | Current Version | Previous Version | Text Only | Print | Product List | Glossary Off
Versions: 1 2 3 4 5 6 7 8 9 10 11 12 13 14 15 16 17 18 19 20 21 22 23 24 25 26 27 28 29 30 31 32 33 34 35 36 37 38 39 40 41 42 43 44 45 46 47 48 49 50

000
ASUS43 KLSX 170159
RWRMO

WEATHER SUMMARY FOR MISSOURI
NATIONAL WEATHER SERVICE SPRINGFIELD MO
900 PM CDT TUE SEP 16 2014

NOTE: "FAIR" INDICATES FEW OR NO CLOUDS BELOW 12,000 FEET WITH NO
       SIGNIFICANT WEATHER AND/OR OBSTRUCTIONS TO VISIBILITY.
       CURRENT SKY AND/OR WEATHER CONDITIONS ARE NOT AVAILABLE FOR
       CHILLICOTHE AND FARMINGTON.

MOZ001>031-035>038-043-044-053-054-170300-
...NORTHERN AND WESTERN MISSOURI...

CITY           SKY/WX    TMP DP  RH WIND       PRES   REMARKS
KANSAS CTY INT PTCLDY    64  53  67 SE6       30.04S
KANSAS C DTWN  PTCLDY    67  54  63 SE9       30.03S
LEE`S SUMMIT   CLEAR     64  55  72 SE5       30.05S
ST JOSEPH      CLOUDY    63  53  70 SE3       30.04S
KIRKSVILLE     CLEAR     52  49  89 CALM      30.09R

$$
MOZ066>068-077>081-088>096-101>105-170300-
...SOUTHWEST MISSOURI...

CITY           SKY/WX    TMP DP  RH WIND       PRES   REMARKS
SPRINGFIELD    CLEAR     65  61  87 S8        30.07R
JOPLIN         MOCLDY    70  65  84 CALM      30.05R

$$
MOZ032>034-039>042-045>050-055>058-069>072-170300-
...CENTRAL MISSOURI...

CITY           SKY/WX    TMP DP  RH WIND       PRES   REMARKS
COLUMBIA         N/A     59  54  83 MISG      30.08S
JEFFERSON CITY CLEAR     57  54  89 SE3       30.07S
ROLLA          CLEAR     55  52  89 SE7       30.07F FOG
SEDALIA        CLEAR     61  54  77 SE3       30.07R
OSAGE BEACH    MOCLDY    61  55  82 S3        30.08R

$$
MOZ051-052-059>065-170300-
...EAST CENTRAL MISSOURI...

CITY           SKY/WX    TMP DP  RH WIND       PRES   REMARKS
ST LOUIS INTL  CLEAR     59  51  75 NE5       30.11R
SPIRIT OF STL  CLEAR     54  52  93 CALM      30.10R
ST CHARLES     CLEAR     54  52  93 CALM      30.10S

$$
MOZ072>076-082>087-097>100-106>115-170300-
...SOUTH CENTRAL AND SOUTHEAST MISSOURI...

CITY           SKY/WX    TMP DP  RH WIND       PRES   REMARKS
CAPE GIRARDEAU CLEAR     57  52  83 NE5       30.10S
FARMINGTON     PTCLDY    57  54  88 NE6       30.12R
POPLAR BLUFF   CLOUDY    64  55  72 NE6       30.07S
WEST PLAINS    CLOUDY    62  59  90 CALM      30.10S

$$


USA.gov is the U.S. government's official web portal to all federal, state and local government web resources and services.